Theta_e
334 333 332 332 332 331 332 333 333 332 333 335 335 334 334 335 335 335 332 334 336 338 341 345 345 347 348 349 348 347 347 345 344 344 343 343 346 346 343 341 340 339 338
333 332 331 331 332 333 332 332 331 331 330 333 334 335 334 335 335 333 330 334 335 337 339 343 344 346 347 348 348 347 345 342 342 345 345 345 344 344 342 340 337 336 335
334 334 333 333 335 336 334 333 332 332 331 331 332 333 334 335 332 332 332 334 336 336 338 343 342 344 347 348 348 346 343 343 343 343 343 341 342 342 340 337 335 335 334
336 335 333 332 334 333 333 330 329 328 328 329 331 332 332 333 332 333 333 333 336 338 340 341 343 343 346 347 349 344 341 343 342 340 341 341 339 339 338 335 335 334 333
335 333 333 332 334 331 329 330 329 328 327 328 329 331 330 329 331 331 333 337 340 341 341 342 341 342 343 345 348 345 342 341 340 340 339 338 339 338 337 336 334 333 332
335 334 332 331 332 329 328 328 328 328 328 329 328 328 329 330 331 332 335 337 339 341 342 344 345 343 343 340 338 345 342 338 337 338 339 338 338 338 337 334 333 332 331
335 334 333 330 327 327 329 329 328 326 326 329 327 326 329 332 333 334 338 338 339 340 342 346 344 344 344 341 340 341 340 339 339 338 337 336 337 336 334 334 333 332 330
335 333 329 328 327 327 329 328 327 324 327 329 325 324 319 323 331 334 336 337 335 340 342 342 344 345 346 339 340 340 339 340 337 336 335 334 335 334 333 333 332 330 330
332 333 331 330 330 329 328 328 327 326 324 326 330 325 317 314 322 332 331 331 334 337 339 339 342 340 336 337 339 339 338 336 339 335 335 333 327 333 333 332 332 330 330
332 332 332 330 331 329 328 327 328 328 328 325 328 332 332 329 318 319 330 332 332 336 336 336 335 334 338 338 336 334 335 335 333 333 332 331 331 334 333 332 331 331 329
332 330 331 331 331 329 330 328 328 328 331 329 330 327 330 331 331 325 319 327 331 333 333 334 333 333 333 334 333 333 331 330 332 332 332 333 335 334 332 332 331 330 329
331 331 330 331 331 330 330 329 329 329 329 332 332 331 330 328 328 328 322 324 323 328 333 331 332 334 332 330 330 329 329 328 328 328 328 334 334 334 332 332 331 330 329
327 330 331 331 332 332 331 331 330 330 330 329 331 331 333 330 331 332 326 324 322 326 328 330 331 331 330 329 329 330 329 326 325 325 325 327 331 329 331 332 331 330 329
328 331 331 332 332 332 332 332 331 330 331 332 331 330 330 328 330 333 330 325 320 323 325 325 329 330 330 329 329 329 328 325 324 322 321 324 325 324 326 330 330 330 330
329 330 330 332 332 333 333 333 332 331 331 331 331 331 328 329 331 337 338 331 326 319 319 323 323 329 330 330 329 329 330 325 324 322 323 322 320 321 324 325 326 326 326
330 330 330 332 333 333 333 333 330 331 331 332 329 331 330 333 334 336 333 331 333 323 319 324 325 327 329 330 331 330 329 326 323 322 323 322 320 321 321 322 322 323 324
329 328 329 330 332 332 332 330 330 329 329 330 330 328 328 332 332 332 334 331 327 325 320 322 326 328 327 327 327 328 329 328 326 321 322 320 318 318 319 319 319 320 320
329 328 330 329 330 331 329 328 326 327 327 327 326 326 326 327 328 333 330 331 329 327 323 320 323 324 325 326 326 326 327 327 327 322 320 318 316 315 315 315 316 315 313
329 329 330 330 330 330 331 331 328 328 328 328 328 326 327 326 329 331 330 329 327 326 325 323 322 324 324 324 324 324 324 323 325 323 318 317 315 315 314 313 313 312 309
329 330 331 330 331 330 329 330 328 329 330 329 328 329 328 328 331 330 328 330 330 327 324 322 322 321 321 322 322 319 317 322 320 322 318 316 315 312 312 312 313 311 306
330 331 331 331 332 331 329 329 327 329 330 329 329 329 331 327 322 324 329 326 326 325 323 321 320 319 318 319 319 323 322 322 323 323 322 322 324 321 315 311 311 309 305
331 331 330 330 331 329 305 313 323 327 330 330 330 327 326 321 317 314 315 316 323 325 322 321 320 319 321 325 325 323 321 320 317 327 322 317 318 315 313 313 304 303 303
331 331 330 331 331 329 302 305 313 328 329 328 331 328 327 328 327 329 313 312 312 311 317 330 328 325 326 328 327 326 324 324 323 325 320 314 316 312 313 309 302 301 300
330 330 330 331 330 326 301 303 309 328 328 328 331 330 329 331 328 330 330 329 329 328 329 332 335 334 334 333 331 328 327 328 328 326 325 314 316 313 311 309 302 300 299
328 327 328 329 330 323 301 303 318 326 327 328 332 331 328 330 305 309 330 328 328 325 308 304 306 307 306 309 318 325 322 324 323 322 327 318 316 312 311 308 306 300 299
327 325 327 331 319 322 299 303 320 327 325 326 329 329 311 321 301 306 332 330 327 325 326 326 326 317 316 313 308 332 328 325 325 318 321 318 316 312 308 310 307 307 306
Wind_Speed
7 7 7 6 5 6 5 6 5 4 5 7 7 9 10 10 8 5 5 8 10 12 12 12 13 13 17 20 22 23 22 21 21 19 18 18 19 18 18 17 15 14 15
7 7 7 7 7 5 5 5 4 4 5 5 7 8 9 8 7 7 6 6 9 12 12 11 11 11 15 21 23 25 24 21 19 17 18 18 18 17 18 16 15 14 15
9 9 8 7 7 5 7 5 4 4 4 5 7 7 6 6 6 7 7 6 6 9 11 10 10 9 16 21 27 29 26 22 20 18 18 17 17 16 18 17 16 16 15
10 9 8 7 6 5 5 4 5 5 5 6 6 6 6 5 6 7 7 6 5 5 7 7 9 11 14 20 30 32 28 23 20 18 17 18 19 17 18 18 17 17 16
10 9 7 5 6 5 4 5 5 6 6 6 6 6 5 5 6 5 7 7 6 5 4 1 4 5 9 11 24 27 26 25 24 22 20 19 17 17 16 16 16 16 16
8 8 5 6 5 5 5 5 7 6 5 6 5 5 5 5 5 5 5 5 5 5 4 2 3 5 12 17 17 31 29 27 25 23 21 19 18 18 17 17 15 15 14
7 7 6 5 5 6 6 6 6 7 6 5 5 4 3 4 5 3 1 3 3 3 3 1 4 4 5 19 24 28 31 27 27 25 22 21 20 17 16 15 14 13 13
5 6 6 5 6 5 6 6 7 6 5 5 4 5 4 4 3 3 2 1 2 3 1 3 4 6 8 6 22 32 35 30 28 25 20 19 17 16 14 13 13 12 10
4 6 7 5 5 5 5 6 8 8 6 5 6 2 4 4 6 2 4 2 2 3 3 6 7 11 10 11 17 22 31 31 30 26 23 19 18 15 14 13 12 10 9
3 4 5 5 5 4 5 5 6 6 6 6 4 4 0 4 4 4 3 3 3 2 4 6 7 9 12 11 19 23 26 31 29 27 23 21 19 16 14 12 11 9 8
3 4 5 5 5 5 5 5 7 7 5 5 5 4 3 2 3 4 4 4 4 4 4 7 8 8 8 10 12 13 24 27 24 22 18 18 17 16 14 12 11 9 8
2 4 5 4 4 5 6 6 7 7 5 3 4 5 3 1 2 2 5 4 3 3 5 7 9 8 7 11 20 24 21 20 19 15 13 13 14 14 10 11 10 9 8
3 4 4 4 3 5 5 6 7 7 6 4 3 3 2 2 1 2 6 4 2 2 2 5 7 10 11 11 15 22 22 18 13 11 11 10 10 17 8 8 10 9 7
4 5 4 3 3 4 4 5 5 5 5 4 5 4 3 1 3 3 6 7 5 2 2 2 9 11 13 11 15 20 13 16 12 12 12 9 12 13 12 8 6 6 5
5 5 4 2 4 4 4 5 4 5 5 5 4 4 3 5 3 4 6 8 7 5 2 1 6 10 15 13 17 11 10 13 11 12 11 9 8 8 7 7 7 6 5
5 4 4 2 3 4 4 4 4 4 4 3 2 5 5 4 5 4 4 5 5 7 4 4 10 13 12 10 15 11 9 11 12 10 7 7 8 9 8 7 6 5 3
5 4 3 3 2 5 5 4 4 4 4 4 3 5 5 8 5 6 6 7 8 9 10 7 8 14 14 12 10 9 8 7 5 7 9 8 8 7 6 7 5 3 1
5 4 4 4 4 5 5 4 4 4 5 5 6 6 7 7 7 10 7 10 9 9 12 14 10 10 10 11 11 10 6 4 4 8 9 7 6 7 6 4 4 3 2
6 5 4 5 5 5 6 5 6 5 6 6 7 7 8 9 11 9 9 9 9 8 9 10 7 7 6 8 8 5 5 3 2 6 4 6 4 5 6 7 6 5 6
6 6 5 5 6 6 6 7 7 6 6 7 7 7 9 10 12 12 9 12 11 10 10 8 9 8 9 5 5 5 3 4 5 6 7 5 5 6 6 7 8 11 11
6 6 6 6 6 5 5 7 7 7 7 8 7 8 8 9 11 9 9 9 11 9 9 9 9 10 7 6 7 3 6 6 6 5 6 5 6 8 9 12 13 12 12
6 6 7 7 7 5 7 9 7 7 7 7 8 8 10 11 11 13 12 11 8 12 11 9 10 11 10 7 7 8 7 8 6 5 9 9 8 9 9 10 11 11 11
5 5 5 5 6 6 5 8 6 6 7 6 9 9 8 8 12 13 14 14 13 13 6 10 13 10 11 11 10 10 9 7 8 8 11 9 8 10 9 9 11 13 13
6 5 5 5 5 5 4 7 5 7 6 6 9 12 9 11 12 13 14 13 11 10 7 5 8 9 8 11 10 7 9 10 10 7 8 8 8 9 9 9 11 14 12
6 4 4 6 7 5 4 8 8 6 6 7 9 10 9 12 9 10 12 12 10 7 7 8 10 9 6 8 8 9 9 9 7 6 2 8 8 9 7 7 9 10 9
6 4 5 6 8 8 4 5 7 7 8 5 9 10 4 11 9 4 7 6 8 7 8 7 7 9 7 6 5 3 8 7 7 6 6 5 9 8 5 4 4 3 4
Wind_Direction
240 247 246 250 254 253 249 257 249 265 262 245 234 224 218 221 231 253 253 253 264 269 267 270 263 252 217 195 186 173 168 157 144 146 149 148 140 137 137 130 132 135 128
239 249 242 242 245 238 248 252 247 263 259 248 231 218 216 220 232 246 248 262 265 264 265 265 266 255 221 199 185 166 155 152 152 149 146 145 142 142 133 134 134 137 128
236 238 239 240 247 221 230 225 240 239 247 236 235 218 220 221 237 245 249 259 268 235 257 257 262 261 225 205 181 159 153 157 156 154 151 151 138 136 134 135 140 136 144
236 235 236 236 233 230 229 230 227 234 239 234 224 218 209 217 236 239 247 258 245 249 226 245 259 259 225 212 188 162 159 153 152 151 141 150 136 141 133 145 146 145 137
232 228 231 235 209 225 231 236 221 237 230 225 220 207 209 227 237 241 253 245 241 236 245 142 208 243 206 202 204 157 151 152 146 146 146 145 144 134 144 143 146 142 129
219 215 221 225 211 216 217 216 228 215 232 225 211 204 213 229 232 233 246 226 234 239 252 270 202 198 178 182 198 156 151 148 143 151 149 145 148 146 143 141 142 137 130
211 214 219 210 205 216 221 217 225 225 214 197 187 180 172 217 211 214 213 215 234 250 262 202 210 206 174 184 180 155 149 151 155 158 148 153 143 136 137 148 144 137 139
214 214 205 205 201 210 208 210 213 214 214 197 192 162 163 160 152 168 119 177 242 260 246 138 182 156 152 147 154 154 152 159 154 149 144 132 134 131 146 147 140 139 138
208 215 201 194 193 209 217 211 212 208 196 202 217 178 165 184 161 159 120 123 218 201 115 132 132 120 115 132 148 151 143 147 145 146 131 125 130 147 151 146 139 137 154
173 198 194 189 205 204 209 204 203 209 215 191 198 232 193 130 179 162 138 175 183 174 131 120 114 117 131 133 147 146 151 135 142 132 138 148 145 154 147 145 146 150 161
152 167 180 187 193 204 202 198 195 214 221 202 203 179 196 153 164 142 159 172 94 105 127 124 118 119 127 132 135 125 125 124 128 132 142 149 147 148 148 150 149 169 182
130 183 158 166 182 202 206 196 201 208 227 247 206 210 190 146 166 175 139 135 116 98 129 138 128 114 120 116 120 125 116 121 122 133 164 144 145 130 149 158 171 185 190
182 158 155 167 197 208 190 187 191 197 213 236 222 211 147 157 88 243 136 137 125 80 84 141 125 120 104 114 127 124 124 124 138 151 123 114 133 138 158 189 184 194 199
161 138 141 156 123 174 192 172 183 187 190 216 216 177 143 36 280 225 168 147 132 93 80 58 111 134 124 130 124 123 128 139 143 132 127 124 122 144 184 185 179 205 206
137 133 128 125 145 131 150 165 162 177 195 212 199 158 137 181 214 187 172 157 152 129 83 117 122 114 120 133 135 138 127 123 124 116 125 136 154 166 211 173 189 191 207
136 135 132 117 81 90 97 125 131 167 186 182 170 166 157 171 160 149 107 132 101 95 99 67 107 115 117 114 122 123 123 132 120 127 168 189 181 186 182 179 191 200 230
134 147 151 153 122 102 96 101 118 146 167 142 125 104 128 157 137 130 113 106 86 102 108 115 108 115 114 116 118 112 119 114 142 177 185 188 189 178 173 187 188 210 257
142 157 167 155 139 113 96 99 86 122 127 118 113 113 114 123 115 121 107 104 104 110 115 129 117 118 115 113 113 118 128 124 156 189 193 175 172 172 176 166 149 123 124
146 155 168 155 136 116 106 96 99 100 113 122 128 125 129 126 132 130 119 112 109 113 114 118 115 109 102 114 109 99 110 108 156 148 153 137 162 146 141 138 144 109 83
147 151 151 142 129 118 109 112 107 99 103 108 106 123 134 139 139 130 124 123 122 125 114 117 121 114 118 104 113 132 122 152 145 154 81 89 145 110 112 108 105 88 83
134 140 143 139 129 120 122 117 112 105 107 110 116 112 122 122 110 115 126 125 127 121 121 125 124 120 127 143 148 153 153 146 127 135 132 127 130 113 106 84 92 86 76
134 135 141 145 140 119 126 128 125 119 108 115 110 105 109 104 103 102 97 100 134 132 128 129 136 145 152 157 150 163 157 158 133 154 113 105 113 100 95 86 67 86 85
137 135 135 144 140 124 155 133 130 119 110 116 118 120 108 117 132 119 101 104 95 86 94 148 143 155 162 167 155 169 170 159 122 135 124 110 113 104 101 88 69 87 91
143 132 129 137 130 115 129 136 140 106 110 125 126 124 124 130 127 133 132 130 127 135 135 134 138 146 151 160 167 158 138 115 115 137 137 123 131 113 107 96 85 88 84
141 147 115 129 130 119 127 139 132 115 113 135 132 129 117 119 114 126 129 129 131 127 85 66 74 89 98 138 141 144 152 151 136 142 171 129 150 139 144 121 109 101 96
136 137 119 125 122 130 164 145 148 141 134 122 110 121 85 110 103 90 115 139 142 142 141 134 114 93 121 118 147 197 164 172 139 147 156 145 163 157 163 146 125 105 100